Location: Michelbach Markt
(48.1000°N, 15.7500°E)
Time: 10:56:16
(UTC+02:00)

Envisat - Pass Details

Date: 07 February 2022
Orbit: 764 x 765 km, 98.2° (Epoch: 17 May)

Event Time Altitude Azimuth Distance (km) Brightness Sun altitude
Rises 04:30:31 0° 17° (NNE) 3,244 6.6 -28.1°
Reaches altitude 10° 04:32:54 10° 23° (NNE) 2,313 5.8 -27.7°
Maximum altitude 04:37:53 52° 100° (E) 951 3.7 -26.8°
Drops below altitude 10° 04:42:49 10° 176° (S) 2,298 5.4 -26.0°
Sets 04:45:10 0° 181° (S) 3,219 6.2 -25.6°
